Wind_Speed
11 11 12 11 11 12 12 12 12 12 13 13 13 14 15 15 16 16 17 17 17 18 18 19 19 19 20 20 20 21 21 22 22 22 22 22 22 22 22 22 22 23 23
11 12 12 12 12 12 12 13 13 14 15 15 16 16 17 18 18 19 19 19 19 20 20 20 20 20 20 21 21 21 22 22 23 23 24 24 24 24 24 24 24 24 24
12 12 12 12 12 13 13 14 15 15 16 16 17 18 18 18 19 19 20 20 20 21 21 21 21 21 21 21 21 22 22 23 23 24 24 25 25 25 25 25 25 25 25
11 12 12 12 13 13 14 15 15 15 16 17 18 18 19 19 20 20 20 21 21 21 21 21 21 21 21 21 21 21 22 22 23 23 24 24 25 25 25 25 26 26 26
11 12 12 13 14 14 15 15 16 16 17 18 19 19 19 20 20 21 21 21 21 21 21 21 21 21 21 21 21 21 22 22 22 23 23 24 24 24 25 25 25 26 26
12 12 13 13 14 14 15 16 17 18 18 19 19 20 21 21 21 21 21 21 21 21 21 21 21 21 21 21 21 22 22 22 22 23 23 23 24 24 25 25 25 25 26
13 13 13 14 15 16 16 17 18 19 19 19 20 20 20 21 21 21 21 21 21 21 21 21 22 22 22 22 22 22 22 23 23 23 23 23 24 24 25 25 25 25 26
14 14 15 16 16 17 18 18 19 19 19 20 20 20 21 21 21 21 21 21 22 22 22 22 23 23 23 23 23 23 24 24 24 24 24 25 25 25 26 26 26 26 27
15 16 16 16 17 17 18 18 18 19 19 19 20 20 21 21 21 22 22 22 23 23 23 24 24 24 24 25 25 25 25 25 25 26 26 26 26 27 27 27 28 28 28
15 16 16 16 16 16 17 17 18 19 19 20 21 21 22 22 23 23 24 24 24 24 25 25 25 25 26 26 26 26 26 26 27 27 27 28 28 28 28 29 29 30 30
14 15 15 15 16 17 17 18 19 20 21 22 22 23 23 24 25 25 25 25 25 25 26 26 26 26 26 27 27 27 27 28 28 28 28 29 29 30 30 30 30 31 32
15 16 16 17 17 18 19 20 21 21 22 23 24 24 25 25 25 26 25 26 26 26 26 26 26 26 26 27 27 27 28 28 29 29 29 29 30 30 31 31 31 32 33
17 17 18 18 19 20 21 21 22 23 24 25 25 25 26 26 26 26 26 27 27 27 27 27 27 27 27 27 28 28 28 28 29 29 29 30 30 31 31 31 32 32 33
20 20 20 21 21 22 23 24 24 25 26 26 26 27 27 27 27 27 27 27 27 27 27 27 28 28 28 28 28 29 29 29 30 30 30 30 31 31 32 32 33 33 34
23 23 23 23 24 25 25 26 26 27 27 27 28 29 29 29 29 29 28 28 28 28 28 28 28 28 28 29 29 29 30 30 31 31 32 32 32 33 33 34 34 35 35
25 25 26 26 26 26 27 27 28 28 29 29 30 30 30 30 30 29 29 29 29 29 29 29 29 29 29 29 30 30 31 31 32 33 33 33 33 34 35 35 36 36 37
28 28 28 28 28 28 29 29 29 30 30 30 31 31 31 31 31 30 30 30 30 30 30 30 30 30 30 30 31 32 32 33 34 34 35 35 35 35 35 36 36 37 38
30 30 31 31 30 30 30 31 31 31 31 31 31 32 32 32 32 31 31 31 30 30 30 31 31 31 31 32 33 33 34 35 36 36 36 36 37 37 37 37 38 38 39
33 33 33 33 33 32 33 33 33 32 32 32 32 32 33 33 32 32 32 32 31 31 31 31 32 33 33 34 35 36 36 37 37 38 38 38 39 39 39 39 40 40 41
35 35 35 35 35 34 34 34 34 33 33 33 32 33 33 33 33 33 33 32 32 32 32 33 33 34 35 36 37 38 38 39 39 40 41 41 41 41 42 42 42 43 43
36 36 36 36 36 36 36 35 35 34 34 33 33 34 34 34 34 33 33 33 33 33 34 34 35 36 37 37 38 39 40 41 42 42 43 43 43 44 44 45 45 45 45
38 37 37 37 37 37 37 36 36 35 35 34 34 34 34 34 34 34 34 34 34 34 35 36 37 38 38 39 40 40 41 42 43 44 44 45 46 46 46 47 47 48 48
39 38 38 37 37 37 36 36 36 35 35 35 35 35 35 34 34 34 35 35 36 36 37 38 39 40 40 41 42 42 42 43 43 44 45 47 47 48 48 49 49 50 50
41 40 38 38 37 37 37 36 36 36 36 36 36 36 35 35 35 35 36 37 37 38 39 40 41 42 43 43 43 44 45 45 45 44 45 47 48 48 49 50 51 52 52
40 39 39 38 37 37 36 36 36 37 37 36 35 35 36 36 36 36 37 38 38 39 41 42 43 44 44 45 45 46 46 47 47 47 45 46 47 48 49 51 52 52 53
39 38 37 37 37 36 36 36 36 36 36 35 35 35 36 36 37 38 38 39 40 41 43 44 44 45 46 47 47 48 48 48 49 49 48 47 47 48 49 50 51 53 54
Wind_Direction
232 235 238 241 245 250 254 257 260 263 266 270 273 276 278 280 282 283 284 284 285 286 286 286 285 285 285 284 284 284 284 283 282 282 281 280 278 277 275 273 272 270 269
235 239 242 245 249 254 258 262 265 268 271 275 277 280 281 283 284 285 285 286 286 287 287 287 288 288 287 286 285 284 284 283 283 282 281 280 279 278 277 275 273 271 270
238 242 244 248 253 258 262 266 270 273 275 278 280 282 284 285 286 287 288 289 289 289 289 289 289 289 289 288 287 286 286 285 284 283 282 281 280 279 278 277 275 273 271
240 243 247 252 258 263 267 271 274 277 279 282 284 285 286 287 288 289 290 291 292 292 291 290 290 290 290 289 289 288 288 287 286 285 284 283 282 281 280 278 277 276 274
243 247 251 257 261 265 269 273 276 279 281 284 286 286 287 289 290 290 292 292 293 293 293 292 292 292 291 291 290 289 289 288 287 286 285 284 282 281 280 279 279 277 276
247 251 255 259 262 266 270 274 278 281 283 284 285 285 287 288 289 290 291 291 291 291 292 292 292 292 292 292 291 290 289 288 288 286 285 284 282 281 280 279 278 277 277
247 251 256 261 265 270 273 275 278 280 282 283 284 285 286 287 288 289 289 290 291 291 291 291 291 291 291 291 291 290 290 289 288 287 285 284 282 281 280 279 278 277 276
250 254 259 263 267 270 272 274 276 279 282 283 284 285 286 286 286 287 288 289 290 291 291 291 291 291 291 290 290 290 289 288 287 286 284 283 281 280 279 277 276 276 275
254 258 262 265 268 270 272 274 276 279 280 282 284 285 286 286 286 287 288 288 289 290 290 290 290 289 289 289 289 289 288 287 286 284 283 282 281 280 278 277 276 275 274
258 261 264 267 269 271 273 276 278 280 282 283 285 286 286 286 286 287 287 288 288 288 288 288 288 289 289 289 288 288 287 286 285 284 283 282 281 279 278 277 276 274 273
261 263 265 267 270 272 274 277 280 282 283 284 285 286 287 287 287 286 287 287 288 288 288 288 288 288 288 288 288 287 287 286 285 284 283 282 281 280 279 278 277 276 274
262 264 267 270 272 274 276 279 281 282 284 285 285 286 287 287 287 287 287 288 288 288 288 288 288 288 288 288 288 287 287 286 286 285 284 283 282 281 280 279 278 277 275
264 266 269 271 273 276 278 280 282 283 284 284 285 285 286 286 286 286 287 288 288 288 288 288 288 288 288 288 288 288 288 287 286 286 285 284 283 281 280 279 278 277 276
265 267 270 272 274 276 279 280 282 284 284 284 285 285 285 286 286 286 286 287 288 288 288 287 288 288 288 288 289 288 288 287 286 286 285 284 283 282 281 279 278 277 276
267 268 270 272 274 277 279 280 281 283 283 283 283 284 285 285 285 286 286 286 287 288 287 287 287 287 288 288 288 288 288 288 287 286 285 284 283 282 281 280 278 277 277
268 270 271 272 274 277 278 279 281 282 283 283 283 284 284 285 285 285 285 286 286 287 287 287 288 288 288 288 288 288 288 288 288 287 286 285 283 282 281 280 279 278 277
268 270 272 273 274 276 278 280 281 282 282 282 282 283 284 284 284 284 284 285 286 287 287 287 288 288 289 289 289 289 289 289 289 288 287 286 284 283 282 280 279 278 277
268 270 272 273 274 275 277 279 281 282 282 281 282 282 283 283 283 283 284 285 286 286 286 287 288 289 290 290 291 291 291 291 290 290 289 287 285 284 282 280 279 278 277
267 269 272 273 274 275 276 279 280 282 281 281 281 281 281 282 282 283 283 284 285 286 287 288 289 290 291 291 292 292 292 292 291 290 289 288 286 285 283 282 280 279 278
266 269 271 272 274 275 277 278 279 280 281 280 280 281 281 281 282 283 283 284 285 286 287 288 289 290 291 292 292 292 292 292 292 291 290 288 287 285 284 283 281 280 278
266 268 271 272 273 274 276 277 278 279 279 279 280 280 280 281 282 283 284 285 285 286 288 289 290 291 292 293 292 292 291 292 291 291 290 289 287 286 285 283 282 281 279
267 269 270 271 272 273 274 276 277 278 278 279 279 279 280 280 281 282 283 285 286 287 289 290 291 292 292 293 292 292 291 291 291 291 290 289 288 287 285 284 283 281 280
267 269 270 271 271 272 272 274 275 276 277 278 278 279 280 280 281 283 284 285 286 288 289 290 291 292 293 293 293 292 292 291 290 290 290 289 288 287 286 285 284 283 282
266 268 269 270 270 270 271 272 273 275 276 277 278 279 280 280 281 283 284 286 286 288 289 291 292 292 293 294 294 294 293 292 290 289 288 288 288 287 286 286 285 284 283
266 267 267 268 268 268 269 271 273 274 276 276 277 278 279 280 281 283 284 286 287 288 290 291 293 293 294 294 294 294 293 293 292 290 288 287 286 286 285 285 284 283 283
265 265 265 265 266 267 268 270 271 273 274 275 276 278 279 281 282 283 284 286 287 289 291 292 293 293 294 294 294 294 294 293 292 291 289 288 287 286 285 285 284 283 283
Height
5886 5886 5886 5887 5887 5887 5887 5887 5887 5887 5887 5886 5886 5886 5886 5885 5884 5884 5883 5883 5882 5881 5880 5879 5878 5877 5876 5876 5875 5874 5873 5872 5871 5870 5869 5868 5868 5867 5866 5866 5865 5865 5864
5884 5884 5885 5885 5885 5885 5886 5886 5885 5885 5885 5885 5884 5884 5884 5883 5882 5882 5881 5880 5879 5878 5877 5876 5875 5874 5873 5872 5871 5870 5870 5869 5868 5867 5866 5865 5864 5863 5863 5862 5862 5861 5861
5882 5883 5883 5884 5884 5884 5884 5884 5884 5883 5883 5883 5882 5882 5881 5880 5880 5879 5878 5877 5876 5875 5874 5873 5872 5871 5870 5869 5868 5867 5866 5865 5864 5863 5862 5861 5860 5860 5859 5858 5858 5857 5857
5881 5881 5881 5882 5882 5882 5882 5882 5881 5881 5881 5880 5880 5879 5878 5878 5877 5876 5875 5874 5873 5872 5870 5869 5868 5867 5866 5865 5864 5863 5862 5861 5860 5859 5858 5857 5856 5856 5855 5854 5854 5853 5853
5879 5879 5880 5880 5880 5880 5880 5880 5879 5879 5878 5878 5877 5877 5876 5875 5874 5873 5872 5871 5869 5868 5867 5866 5865 5864 5863 5861 5860 5859 5858 5857 5856 5855 5854 5853 5852 5851 5851 5850 5849 5849 5848
5877 5877 5877 5878 5878 5878 5877 5877 5877 5876 5876 5875 5874 5874 5873 5872 5871 5870 5869 5867 5866 5865 5864 5862 5861 5860 5859 5858 5857 5855 5854 5853 5852 5851 5850 5849 5848 5847 5846 5846 5845 5844 5844
5875 5875 5875 5875 5875 5875 5875 5874 5874 5873 5873 5872 5871 5870 5869 5868 5867 5866 5865 5864 5863 5861 5860 5859 5858 5856 5855 5854 5853 5851 5850 5849 5847 5846 5845 5844 5843 5842 5842 5841 5840 5840 5839
5872 5872 5873 5873 5872 5872 5872 5872 5871 5870 5870 5869 5868 5867 5866 5865 5864 5863 5862 5860 5859 5858 5856 5855 5853 5852 5851 5849 5848 5847 5845 5844 5843 5841 5840 5839 5838 5837 5836 5836 5835 5834 5834
5870 5870 5870 5870 5869 5869 5869 5868 5868 5867 5866 5865 5865 5864 5863 5861 5860 5859 5858 5856 5855 5854 5852 5851 5849 5848 5846 5845 5843 5842 5840 5839 5838 5836 5835 5834 5833 5832 5831 5830 5829 5829 5828
5867 5867 5867 5867 5866 5866 5865 5865 5864 5864 5863 5862 5861 5860 5859 5858 5856 5855 5854 5852 5851 5849 5848 5846 5844 5843 5841 5840 5838 5837 5835 5834 5832 5831 5830 5829 5827 5826 5825 5824 5824 5823 5822
5864 5864 5864 5863 5863 5862 5862 5861 5861 5860 5859 5858 5857 5856 5855 5853 5852 5850 5849 5847 5846 5844 5843 5841 5839 5838 5836 5834 5833 5831 5830 5828 5827 5825 5824 5823 5821 5820 5819 5818 5817 5817 5816
5861 5861 5860 5860 5859 5859 5858 5857 5857 5856 5855 5854 5853 5851 5850 5849 5847 5846 5844 5842 5841 5839 5838 5836 5834 5832 5831 5829 5827 5825 5824 5822 5820 5819 5818 5816 5815 5814 5813 5812 5811 5810 5809
5857 5857 5857 5856 5855 5855 5854 5853 5852 5851 5850 5849 5848 5847 5845 5844 5842 5840 5839 5837 5836 5834 5832 5830 5828 5827 5825 5823 5821 5819 5818 5816 5814 5813 5811 5810 5808 5807 5806 5805 5803 5802 5801
5853 5852 5852 5852 5851 5850 5850 5849 5848 5846 5845 5844 5843 5841 5840 5838 5837 5835 5833 5832 5830 5828 5826 5824 5822 5820 5819 5817 5815 5813 5811 5810 5808 5806 5805 5803 5802 5800 5799 5797 5796 5795 5794
5848 5847 5847 5847 5846 5846 5845 5843 5842 5841 5840 5838 5837 5836 5834 5833 5831 5829 5828 5826 5824 5822 5820 5818 5816 5814 5812 5810 5808 5806 5805 5803 5801 5799 5798 5796 5795 5793 5791 5790 5788 5787 5786
5842 5842 5842 5841 5841 5840 5839 5838 5837 5835 5834 5833 5831 5830 5828 5827 5825 5823 5822 5820 5818 5816 5814 5812 5810 5808 5806 5804 5802 5800 5797 5795 5794 5792 5790 5789 5787 5785 5783 5782 5780 5779 5777
5836 5836 5836 5835 5835 5834 5833 5832 5830 5829 5828 5826 5825 5823 5822 5820 5819 5817 5815 5813 5812 5810 5808 5806 5804 5802 5800 5797 5795 5793 5790 5788 5786 5784 5782 5780 5779 5777 5775 5773 5772 5770 5769
5830 5829 5829 5828 5828 5827 5826 5825 5824 5823 5821 5820 5818 5817 5815 5813 5812 5810 5809 5807 5805 5803 5801 5799 5797 5795 5792 5790 5788 5785 5783 5780 5778 5776 5774 5772 5770 5768 5766 5764 5763 5761 5760
5823 5822 5822 5821 5821 5820 5819 5818 5817 5815 5814 5813 5811 5810 5808 5806 5805 5803 5802 5800 5798 5796 5794 5792 5790 5787 5785 5783 5780 5777 5775 5772 5769 5767 5765 5763 5761 5759 5757 5755 5753 5752 5750
5816 5815 5814 5814 5813 5812 5811 5811 5809 5808 5807 5805 5804 5802 5801 5799 5798 5796 5794 5792 5790 5789 5787 5784 5782 5780 5777 5775 5772 5769 5766 5763 5760 5758 5755 5753 5751 5748 5746 5745 5743 5741 5739
5808 5807 5807 5806 5805 5805 5804 5803 5802 5801 5799 5798 5796 5795 5793 5792 5790 5789 5787 5785 5783 5781 5779 5777 5774 5772 5769 5766 5764 5761 5758 5754 5751 5748 5745 5742 5740 5738 5736 5733 5731 5729 5728
5800 5799 5799 5798 5797 5797 5796 5795 5794 5793 5791 5790 5789 5787 5786 5784 5782 5781 5779 5777 5775 5773 5771 5769 5766 5763 5761 5758 5755 5752 5749 5746 5742 5738 5735 5732 5729 5726 5724 5722 5719 5717 5716
5791 5790 5790 5789 5789 5788 5787 5787 5786 5784 5783 5782 5781 5779 5778 5776 5775 5773 5771 5769 5767 5765 5763 5760 5757 5754 5752 5748 5745 5742 5739 5737 5733 5729 5725 5721 5718 5715 5712 5709 5707 5705 5703
5781 5781 5781 5780 5780 5780 5779 5778 5777 5776 5775 5774 5773 5771 5770 5768 5767 5765 5763 5761 5759 5756 5754 5751 5748 5745 5741 5738 5735 5731 5728 5725 5722 5720 5716 5711 5707 5704 5700 5697 5694 5692 5689
5771 5771 5771 5771 5771 5770 5770 5769 5769 5768 5767 5765 5764 5763 5761 5760 5758 5756 5754 5752 5750 5747 5744 5741 5738 5735 5731 5728 5724 5721 5717 5714 5710 5708 5706 5701 5697 5693 5689 5686 5682 5679 5676
5761 5762 5762 5762 5762 5761 5761 5760 5760 5759 5758 5757 5756 5754 5753 5751 5750 5747 5745 5743 5740 5737 5734 5731 5728 5724 5721 5717 5713 5709 5706 5702 5699 5695 5693 5690 5686 5682 5678 5673 5670 5666 5663